[Iaude] MPEC G191: 2024 GG5 [a=3.04,e=0.58,i=3.4,H=23.1]

mpec at cfa.harvard.edu mpec at cfa.harvard.edu
Sat Apr 13 10:58:42 EDT 2024


M.P.E.C. 2024-G191                               Issued 2024 April 13, 14:57 UT

     The Minor Planet Electronic Circulars contain information on unusual
         minor planets, routine data on comets and natural satellites,
         and occasional editorial announcements.  They are published
    on behalf of Division F of the International Astronomical Union by the
          Minor Planet Center, Smithsonian Astrophysical Observatory,
                          Cambridge, MA 02138, U.S.A.
			  
             Prepared using the Tamkin Foundation Computer Network

                              MPC at CFA.HARVARD.EDU
            URL https://www.minorplanetcenter.net/    ISSN 1523-6714

                                    2024 GG5                                    


Observations:
     K24G05G* C2024 04 09.39985213 02 29.780-08 17 06.50         21.98wXEG191F52
     K24G05G  C2024 04 09.42485613 02 29.811-08 16 55.86         22.70wXEG191F52
     K24G05G  C2024 04 09.43738313 02 29.806-08 16 50.36         22.43wXEG191F52
     K24G05G  C2024 04 09.55013413 02 29.967-08 16 00.62         21.81GVEG191F51
     K24G05G  C2024 04 09.55177913 02 29.980-08 16 00.00         22.03GVEG191F51
     K24G05G  C2024 04 09.55260013 02 29.963-08 15 59.51         21.98GVEG191F51
     K24G05G 3C2024 04 10.43462113 02 38.830-08 09 32.98         21.84GVEG191T14
     K24G05G 3C2024 04 10.43583013 02 38.830-08 09 32.43         21.94GVEG191T14
     K24G05G 3C2024 04 10.43703813 02 38.832-08 09 31.91         21.94GVEG191T14
     K24G05G KC2024 04 11.30298 13 02 47.23 -08 03 08.0          22.6 RVEG191691
     K24G05G KC2024 04 11.32728 13 02 47.32 -08 02 57.1          22.3 RVEG191691
     K24G05G KC2024 04 11.35159 13 02 47.38 -08 02 45.9          22.1 RVEG191691
     K24G05G KC2024 04 12.25597613 02 57.368-07 55 54.19         21.93GVEG191V06
     K24G05G KC2024 04 12.26153513 02 57.379-07 55 51.71         22.19GVEG191V06
     K24G05G KC2024 04 12.26709413 02 57.404-07 55 49.22         22.09GVEG191V06
     K24G05G KC2024 04 12.27265313 02 57.415-07 55 46.67         22.03GVEG191V06
     K24G05G  C2024 04 13.29583713 03 08.480-07 47 53.06         21.8 GVEG191H01
     K24G05G  C2024 04 13.30243813 03 08.505-07 47 49.83         22.0 GVEG191H01
     K24G05G  C2024 04 13.30977113 03 08.534-07 47 46.26         21.9 GVEG191H01
     K24G05G  C2024 04 13.31897113 03 08.568-07 47 42.01         21.8 GVEG191H01

Observer details:
691 Steward Observatory, Kitt Peak-Spacewatch.  Observer R. A. Mastaler.
    0.9-m f/3 reflector + CCD.
F51 Pan-STARRS 1, Haleakala.  Observers J. Herman, T. Lowe, P. Minguez, A.
    Schultz, I. Smith.  Measurers K. Chambers, T. de Boer, J. Fairlamb, H.
    Gao, M. Huber, C.-C. Lin, E. Magnier, Y. Ramanjooloo, R. Wainscoat, R.
    Weryk.  1.8-m Ritchey-Chretien + CCD.
F52 Pan-STARRS 2, Haleakala.  Observers J. Herman, T. Lowe, P. Minguez, A.
    Schultz, I. Smith.  Measurers K. Chambers, T. de Boer, J. Fairlamb, H.
    Gao, M. Huber, C.-C. Lin, E. Magnier, Y. Ramanjooloo, R. Wainscoat, R.
    Weryk.  1.8-m Ritchey-Chretien + CCD.
H01 Magdalena Ridge Observatory, Socorro.  Observers W. H. Ryan, E. V. Ryan.
    Measurer W. H. Ryan.  2.4-m f/8.9 Ritchey-Chretien + CCD.
T14 Canada-France-Hawaii Telescope, Maunakea.  Observers R. Wainscoat, A.
    Acohido, T. Burdullis.  Measurers R. Weryk, R. Wainscoat.  3.6-m f/4.1
    reflector + CCD.
V06 Catalina Sky Survey-Kuiper.  Observers V. F. Carvajal, D. Rankin.
    Measurers T. Beuden, V. F. Carvajal, D. Fay, J. B. Fazekas, D. C. Fuls, A.
    R. Gibbs, A. D. Grauer, H. Groeller, J. K. Hogan, R. A. Kowalski, S. M.
    Larson, G. J. Leonard, D. Rankin, R. L. Seaman, F. C. Shelly, K. W.
    Wierzchos.  1.55-m reflector + 1K CCD.

Orbital elements:
2024 GG5                                                 Earth MOID = 0.2809 AU
Epoch 2024 Mar. 31.0 TT = JDT 2460400.5                 Veres                   
M 348.39973              (2000.0)            P               Q                  
n   0.18615682     Peri.   34.22200     -0.48807880     +0.87240108             
a   3.0377364      Node   206.59232     -0.81337997     -0.46560075             
e   0.5750854      Incl.    3.37736     -0.31653136     -0.14876928             
P   5.29           H   23.18          G   0.15           U   9                  
Residuals in seconds of arc
240409 F52  0.2-  0.1+    240410 T14  0.0   0.0     240412 V06  0.2+  0.1-
240409 F52  0.1+  0.0     240410 T14  0.0   0.0     240412 V06  0.1+  0.1-
240409 F52  0.1-  0.0     240411 691  0.3-  0.2+    240413 H01  0.1-  0.1-
240409 F51  0.0   0.0     240411 691  0.2+  0.1+    240413 H01  0.1-  0.0
240409 F51  0.1+  0.1-    240411 691  0.2+  0.2+    240413 H01  0.1-  0.1+
240409 F51  0.2-  0.1+    240412 V06  0.2+  0.0     240413 H01  0.1-  0.1+
240410 T14  0.0   0.0     240412 V06  0.1+  0.0

Ephemeris:
2024 GG5                 a,e,i = 3.04, 0.58, 3                   q = 1.2908
Date    TT    R. A. (2000) Decl.     Delta      r    Elong.  Phase     V
2024 03 14    12 57 02.7 -10 00 44   0.6011  1.5634   156.3    14.8    23.9
...
2024 03 29    13 00 54.8 -09 24 47   0.4854  1.4793   170.4     6.4    23.0
...
2024 04 06    13 02 01.7 -08 40 22   0.4384  1.4388   177.7     1.6    22.4
...
2024 04 12    13 02 54.4 -07 57 38   0.4096  1.4110   175.2     3.4    22.3
2024 04 13    13 03 05.2 -07 49 57   0.4053  1.4065   174.2     4.1    22.3
2024 04 14    13 03 17.0 -07 42 08   0.4012  1.4022   173.3     4.8    22.3
...
2024 04 20    13 04 52.7 -06 53 40   0.3794  1.3775   167.5     9.1    22.4
...
2024 04 28    13 08 36.9 -05 49 38   0.3579  1.3488   160.1    14.7    22.4
...
2024 05 13    13 22 58.0 -04 21 25   0.3378  1.3096   148.2    24.0    22.5

M. P. C. Staff               (C) Copyright 2024 MPC           M.P.E.C. 2024-G191





More information about the Iaude mailing list